Regional Weather Roundup
Issued by NWS

Home | Current Version | Previous Version | Graphics & Text | Print | Product List | Glossary On
Versions: 1 2 3 4 5 6 7 8 9 10 11 12 13 14 15 16 17 18 19 20 21 22 23 24 25 26 27 28 29 30 31 32 33 34 35 36 37 38 39 40 41 42 43 44 45 46 47 48 49 50
000
ASUS43 KIND 300209
RWRIN

WEATHER ROUNDUP FOR INDIANA
NATIONAL WEATHER SERVICE INDIANAPOLIS IN
1000 PM EDT MON SEP 29 2014

NOTE: "FAIR" INDICATES FEW OR NO CLOUDS BELOW 12,000 FEET WITH NO
SIGNIFICANT WEATHER AND/OR OBSTRUCTIONS TO VISIBILITY.

* - STATION DOES NOT REPORT WEATHER SUCH AS PRECIPITATION OR FOG.

+ - STATION NOT QUALITY CONTROLLED BY THE NATIONAL WEATHER SERVICE.
    USE DATA WITH CAUTION...ESPECIALLY DEWPOINT AND RELATIVE
    HUMIDITY OBSERVATIONS.

INZ001>003-010>013-019-020-300300-
NORTHWEST INDIANA

CITY           SKY/WX    TMP DP  RH WIND       PRES   REMARKS
KNOX *+        PTCLDY    61  57  87 NW5       29.93R
LA PORTE +     CLOUDY    62  62 100 N16       29.97R FOG
MICHIGAN CITY+ CLOUDY    59  57  94 N12G20    29.99R
MONTICELLO +   CLEAR     61  59  93 CALM      29.93S
RENSSELAER +   CLEAR     64  61  88 SW3       29.94R
VALPARAISO     CLOUDY    61  58  90 N9G23     29.97R

$$

LMZ046-743>745-300300-
SOUTHERN LAKE MICHIGAN

STATION/POSITION TIME  TEMP WIND        PRES
                       AIR  DIR/SP/G
                 (UTC) (F)  (DEG/KT/KT) (MB)
MICHIGAN CITY    0200       360/ 21/ 25   N/A

$$

INZ004-005-014>016-021>024-300300-
NORTH CENTRAL INDIANA

CITY           SKY/WX    TMP DP  RH WIND       PRES   REMARKS
LOGANSPORT +   CLEAR     59  52  77 CALM      29.94S
PERU/GRISSOM   CLEAR     63  61  93 SE3       29.94S
ROCHESTER +    CLEAR     64  61  88 CALM      29.94S
SOUTH BEND     NOT AVBL
WARSAW +       CLEAR     59  55  88 CALM      29.93S

$$

INZ006>009-017-018-025>027-300300-
NORTHEAST INDIANA

CITY           SKY/WX    TMP DP  RH WIND       PRES   REMARKS
ANGOLA *+      CLEAR     61  57  88 CALM      29.93F
AUBURN +       CLEAR     61  55  82 CALM      29.94F
FORT WAYNE     CLEAR     60  55  83 SW3       29.94S
HUNTINGTON +   CLEAR     60  59  96 CALM      29.94S

$$

INZ028-029-035-036-043>045-051>053-300300-
WEST CENTRAL INDIANA

CITY           SKY/WX    TMP DP  RH WIND       PRES   REMARKS
GREENCASTLE +  CLEAR     61  59  94 CALM      29.97R
LAFAYETTE      CLEAR     62  59  90 W3        29.93S
TERRE HAUTE    CLEAR     61  57  87 CALM      29.95S

$$

INZ030>032-037>040-046>048-054>057-064-065-300300-
CENTRAL INDIANA

CITY           SKY/WX    TMP DP  RH WIND       PRES   REMARKS
CP ATTERBURY + CLEAR     55  54  94 CALM      29.97R
COLUMBUS       CLEAR     59  57  94 MISG      29.96R
FRANKFORT +    CLEAR     58  55  89 CALM      29.96S
INDIANAPOLIS   CLEAR     67  53  61 CALM      29.95R
-EAGLE CREEK   CLEAR     66  58  75 CALM      29.95S
KOKOMO *+      CLEAR     61  54  77 CALM      29.95S
MARION +       CLEAR     60  54  78 CALM      29.95S
MT COMFORT *+  CLEAR     57  50  77 CALM      29.96S
SHELBYVILLE    CLEAR     60  51  72 CALM      29.95S
ZIONSVILLE +   CLEAR     59  54  83 CALM      29.96S

$$

INZ033-034-041-042-049-050-058-059-300300-
EAST CENTRAL INDIANA

CITY           SKY/WX    TMP DP  RH WIND       PRES   REMARKS
MUNCIE         CLEAR     63  53  70 S3        29.95S

$$

INZ060-061-067>069-081>083-085>088-300300-
SOUTHWEST INDIANA

CITY           SKY/WX    TMP DP  RH WIND       PRES   REMARKS
EVANSVILLE     CLEAR     69  58  67 CALM      29.96R
WASHINGTON +   CLEAR     59  55  84 CALM      29.95S

$$

INZ062-063-066-070>080-084-089>092-300300-
SOUTH CENTRAL AND SOUTHEAST INDIANA

CITY           SKY/WX    TMP DP  RH WIND       PRES   REMARKS
BLOOMINGTON    CLEAR     59  57  93 CALM      29.97R

$$




USA.gov is the U.S. government's official web portal to all federal, state and local government web resources and services.